Home   Weather   Himeji   Past weeks

Flag for Japan Past Weather in Himeji, Japan — Yesterday and Last 2 Weeks

59 °F

Partly cloudy.

Feels Like: 57 °F
Forecast: 53 / 61 °F
Wind: 9 mph from East

Location: Kansai International Airport

Current Time: Oct 28, 2016 at 1:58:51 AM

Latest Report: Oct 28, 2016 at 1:30 AM

Visibility: N/A

Pressure: 30.15 "Hg

Humidity: 68%

Dew Point: 48 °F

Location of HimejiLocation

Past Weather in Himeji — Graph


Himeji Temperature Yesterday

Maximum temperature yesterday: 72 °F (at 11:00 AM)
Minimum temperature yesterday: 61 °F (at 9:00 PM)
Average temperature yesterday: 67 °F

High & Low Weather Summary for the Past Weeks

High81 °F (Oct 18, 3:00 PM)94% (Oct 17, 6:00 AM)30.30 "Hg (Oct 17, 6:00 AM)
Low57 °F (Oct 25, 3:00 AM)34% (Oct 15, 3:30 PM)29.80 "Hg (Oct 23, 2:30 AM)
Average68 °F67%30.05 "Hg
* Reported Oct 13 12:00 AM — Oct 28 12:30 AM, Himeji, Weather by CustomWeather, © 2016

Note: Actual official high and low records may vary slightly from our data, if they occured in-between our weather recording intervals... More about our weather records


Himeji Weather History for the Previous 24 Hours

Scroll right to see more
Time TempWeatherWind HumidityBarometerVisibility
12:30 AM
Fri, Oct 28
59 °FClear.10 mph72%30.15 "Hg10 mi
12:00 AM61 °FClear.12 mph68%30.18 "Hg10 mi
11:30 PM
Thu, Oct 27
61 °FClear.13 mph68%30.18 "Hg10 mi
11:00 PM61 °FClear.14 mph68%30.18 "Hg10 mi
10:30 PM61 °FClear.13 mph59%30.18 "Hg10 mi
10:00 PM61 °FClear.13 mph59%30.18 "Hg10 mi
9:30 PM61 °FClear.12 mph59%30.21 "Hg10 mi
9:00 PM61 °FClear.12 mph59%30.21 "Hg10 mi
8:30 PM63 °FClear.14 mph56%30.18 "Hg10 mi
8:00 PM63 °FClear.14 mph56%30.18 "Hg10 mi
7:30 PM63 °FClear.14 mph56%30.21 "Hg10 mi
7:00 PM64 °FClear.15 mph52%30.18 "Hg10 mi
6:30 PM64 °FClear.16 mph56%30.18 "Hg10 mi
6:00 PM64 °FPassing clouds.18 mph52%30.18 "HgN/A
5:30 PM64 °FClear.20 mph52%30.15 "Hg10 mi
5:00 PM66 °FSunny.21 mph49%30.15 "Hg10 mi
4:30 PM68 °FSunny.20 mph43%30.15 "Hg10 mi
4:00 PM70 °FSunny.17 mph40%30.15 "Hg10 mi
3:30 PM70 °FSunny.17 mph40%30.15 "Hg10 mi
3:00 PM72 °FPassing clouds.17 mph38%30.15 "HgN/A
2:30 PM72 °FPassing clouds.17 mph38%30.15 "HgN/A
2:00 PM72 °FPassing clouds.17 mph41%30.15 "HgN/A
1:30 PM72 °FPassing clouds.18 mph44%30.15 "HgN/A
1:00 PM72 °FPassing clouds.16 mph41%30.15 "HgN/A
12:30 PM72 °FPassing clouds.16 mph44%30.18 "HgN/A
12:00 PM72 °FPassing clouds.16 mph44%30.18 "HgN/A
11:30 AM72 °FPassing clouds.17 mph44%30.18 "HgN/A
11:00 AM72 °FPassing clouds.17 mph47%30.18 "HgN/A
10:30 AM70 °FPassing clouds.20 mph50%30.18 "HgN/A
10:00 AM70 °FScattered clouds.16 mph57%30.18 "HgN/A
9:30 AM70 °FScattered clouds.18 mph57%30.18 "HgN/A
9:00 AM68 °FPassing clouds.15 mph60%30.18 "HgN/A
8:30 AM68 °FPassing clouds.13 mph60%30.18 "HgN/A
8:00 AM68 °FPartly sunny.8 mph64%30.15 "HgN/A
7:30 AM66 °FPartly sunny.12 mph64%30.15 "HgN/A
7:00 AM66 °FScattered clouds.12 mph64%30.12 "HgN/A
6:30 AM64 °FPassing clouds.10 mph68%30.12 "HgN/A
6:00 AM64 °FPassing clouds.13 mph68%30.09 "HgN/A
5:30 AM64 °FPassing clouds.14 mph68%30.09 "HgN/A
5:00 AM64 °FPassing clouds.16 mph64%30.09 "HgN/A
4:30 AM66 °FPassing clouds.20 mph60%30.09 "HgN/A
4:00 AM66 °FPassing clouds.20 mph60%30.09 "HgN/A
3:30 AM66 °FPassing clouds.20 mph64%30.07 "HgN/A
3:00 AM66 °FPartly cloudy.21 mph64%30.07 "HgN/A
2:30 AM66 °FSprinkles. Passing clouds.18 mph68%30.04 "HgN/A
2:00 AM68 °FPartly cloudy.15 mph64%30.04 "HgN/A
1:30 AM68 °FSprinkles. Partly cloudy.12 mph69%30.04 "HgN/A
1:00 AM68 °FSprinkles. Partly cloudy.12 mph69%30.04 "HgN/A
Weather by CustomWeather, © 2016

See weather overviewHow to use our weather pages